Location: G�ppingen
(48.7000°N, 9.6670°E)
Time: 15:57:52
(UTC+02:00)

Tiangong 2 - Visible Passes

Search period start: 24 June 2017 00:00
Search period end: 04 July 2017 00:00
Orbit: 391 x 396 km, 42.8° (Epoch: 23 June)

Date Brightness Start Highest point End Pass type
(mag) Time Alt. Az. Time Alt. Az. Time Alt. Az.
30 Jun 3.6 04:41:21 10° SSE 04:42:05 11° SSE 04:42:50 10° SE visible
02 Jul 3.2 04:23:13 10° SSW 04:25:17 16° SSE 04:27:21 10° ESE visible
03 Jul 3.4 03:28:48 12° SSE 03:28:48 12° SSE 03:30:01 10° SE visible
